Waarnemingen

Advertentie
Mijn weer
Oostende Airport, België (6407): temperatuur & dauwpunt: 12.10.2019 04:00:00 - 18.10.2019 04:00:00 (CEST)Oostende Airport, België (6407): windsnelheid & windstoten: 12.10.2019 04:00:00 - 18.10.2019 04:00:00 (CEST)Oostende Airport, België (6407): windrichting: 12.10.2019 04:00:00 - 18.10.2019 04:00:00 (CEST)Oostende Airport, België (6407): luchtdruk: 12.10.2019 04:00:00 - 18.10.2019 04:00:00 (CEST)Oostende Airport, België (6407): zicht: 12.10.2019 04:00:00 - 18.10.2019 04:00:00 (CEST)
Datum & Tijd tt [°C] td [°C] ff [km/u] ff [kn] fx [km/u] fx [kn] dd ppp [hPa] vv [km]
18.10.2019 04:00:00 12,0 10,0 16 9 - - Z - 10
18.10.2019 03:00:00 11,7 10,2 15 8 29 16 Z 1005,4 10
18.10.2019 02:00:00 12,4 10,4 15 8 - - Z 1006,0 10
18.10.2019 01:00:00 12,3 10,8 13 7 25 14 Z 1006,4 10
18.10.2019 00:00:00 12,3 10,3 15 8 29 16 Z 1006,7 10
17.10.2019 23:00:00 12,1 10,4 15 8 - - Z 1007,1 10
17.10.2019 22:00:00 12,6 10,1 16 9 22 12 ZZO 1007,3 10
17.10.2019 21:00:00 12,7 10,1 15 8 22 12 Z 1007,9 10
17.10.2019 20:00:00 11,9 9,4 9 5 - - Z 1008,2 10
17.10.2019 19:00:00 12,8 9,1 11 6 22 12 Z 1008,3 10
17.10.2019 18:00:00 14,7 9,9 11 6 25 14 Z 1008,3 10
17.10.2019 17:00:00 15,4 9,0 15 8 - - Z 1008,3 10
17.10.2019 16:00:00 14,9 8,5 21 11 32 18 ZZW 1008,9 10
17.10.2019 15:00:00 15,7 9,9 18 10 32 18 Z 1009,2 10
17.10.2019 14:00:00 15,5 9,1 22 12 - - ZZW 1009,6 10
17.10.2019 13:00:00 14,7 10,5 18 10 29 16 ZZW 1009,7 10
17.10.2019 12:00:00 13,3 10,5 16 9 29 16 Z 1009,9 10
17.10.2019 11:00:00 12,7 10,8 13 7 - - Z 1009,9 10
17.10.2019 10:00:00 11,5 10,3 8 4 22 12 Z 1009,9 10
17.10.2019 09:00:00 10,7 9,4 11 6 18 10 Z 1009,7 9
17.10.2019 08:00:00 10,5 9,7 4 2 - - W 1009,1 10
17.10.2019 07:00:00 10,8 9,6 15 8 22 12 ZZW 1009,0 10
17.10.2019 06:00:00 10,6 9,1 15 8 22 12 ZW 1008,6 10
17.10.2019 05:00:00 10,7 9,6 11 6 - - ZZW 1008,1 10
17.10.2019 04:00:00 11,4 9,7 9 5 18 10 WZW 1007,8 10
17.10.2019 03:00:00 12,3 10,3 15 8 29 16 W 1007,6 10
17.10.2019 02:00:00 12,0 10,2 16 9 - - WNW 1006,9 10
17.10.2019 01:00:00 12,2 11,3 15 8 22 12 WNW 1006,4 3,0
17.10.2019 00:00:00 12,7 11,8 11 6 14 8 WNW 1005,8 3,0
16.10.2019 23:00:00 12,8 11,6 11 6 - - W 1005,7 6
16.10.2019 22:00:00 14,1 13,1 16 9 29 16 Z 1005,4 10
16.10.2019 21:00:00 14,1 12,9 15 8 32 18 Z 1005,2 10
16.10.2019 20:00:00 14,1 13,1 18 10 - - Z 1005,3 10
16.10.2019 19:00:00 14,2 13,1 22 12 32 18 Z 1005,2 7
16.10.2019 18:00:00 14,6 13,5 16 9 32 18 Z 1005,0 8
16.10.2019 17:00:00 14,9 13,4 21 11 - - ZZW 1005,3 10
16.10.2019 16:00:00 14,8 13,5 21 11 32 18 ZZW 1005,2 10
16.10.2019 15:00:00 14,9 13,3 22 12 40 21 Z 1005,2 10
16.10.2019 14:00:00 14,9 13,5 26 14 - - ZZW 1005,2 10
16.10.2019 13:00:00 14,2 12,9 21 11 32 18 Z 1005,3 10
16.10.2019 12:00:00 13,0 12,0 21 11 36 19 Z 1005,4 10
16.10.2019 11:00:00 12,3 11,3 22 12 - - ZZO 1005,7 3,5
16.10.2019 10:00:00 11,7 10,7 24 13 36 19 ZZO 1006,2 3,5
16.10.2019 09:00:00 11,3 9,8 22 12 36 19 ZZO 1006,4 10
16.10.2019 08:00:00 10,3 8,9 18 10 - - ZZO 1006,4 10
16.10.2019 07:00:00 9,7 8,4 16 9 25 14 ZZO 1007,0 10
16.10.2019 06:00:00 10,2 8,9 15 8 22 12 ZZO 1007,6 10
16.10.2019 05:00:00 9,8 8,7 11 6 - - Z 1008,1 10
16.10.2019 04:00:00 10,2 9,1 11 6 25 14 Z 1008,4 10
16.10.2019 03:00:00 10,4 9,2 16 9 25 14 ZZW 1008,4 10
16.10.2019 02:00:00 10,7 9,3 15 8 - - ZZW 1008,5 10
16.10.2019 01:00:00 11,0 9,5 9 5 18 10 Z 1008,4 10
16.10.2019 00:00:00 11,2 9,5 9 5 14 8 Z 1008,3 10
15.10.2019 23:00:00 11,5 9,8 11 6 - - Z 1008,1 10
15.10.2019 22:00:00 11,4 9,7 9 5 18 10 ZZW 1008,0 10
15.10.2019 21:00:00 10,7 9,4 13 7 18 10 ZW 1007,6 10
15.10.2019 20:00:00 11,3 9,7 8 4 - - Z 1007,5 10
15.10.2019 19:00:00 13,1 10,4 16 9 25 14 ZW 1006,8 10
15.10.2019 18:00:00 14,3 11,7 13 7 25 14 ZW 1006,3 10
15.10.2019 17:00:00 14,4 11,3 21 11 - - WZW 1006,2 10
15.10.2019 16:00:00 14,4 12,3 14 8 32 18 ZW 1006,1 25
15.10.2019 15:00:00 13,7 12,4 22 12 32 18 WZW 1006,2 10
15.10.2019 14:00:00 15,5 12,4 18 10 - - ZZW 1006,0 10
15.10.2019 13:00:00 15,3 12,2 18 10 32 18 ZZW 1006,3 10
15.10.2019 12:00:00 14,4 12,0 21 11 29 16 ZZW 1006,4 10
15.10.2019 11:00:00 14,0 11,9 15 8 - - ZZW 1005,7 10
15.10.2019 10:00:00 13,5 11,7 11 6 22 12 Z 1005,4 10
15.10.2019 09:00:00 13,5 12,0 11 6 18 10 Z 1005,3 10
15.10.2019 08:00:00 13,5 12,0 11 6 - - Z 1005,0 10
15.10.2019 07:00:00 13,5 12,0 15 8 25 14 ZZW 1004,7 10
15.10.2019 06:00:00 13,9 12,3 16 9 25 14 ZZW 1004,9 3,5
15.10.2019 05:00:00 14,2 12,4 15 8 - - ZZW 1004,5 10
15.10.2019 04:00:00 14,3 12,5 15 8 25 14 ZZW 1004,4 10
15.10.2019 03:00:00 14,6 12,7 18 10 32 18 ZZW 1004,1 10
15.10.2019 02:00:00 15,0 13,1 21 11 - - ZZW 1004,8 10
15.10.2019 01:00:00 15,3 13,3 16 9 32 18 Z 1004,2 10
15.10.2019 00:00:00 14,2 13,0 11 6 22 12 Z 1004,2 10
14.10.2019 23:00:00 14,3 13,0 16 9 - - OZO 1003,1 10
14.10.2019 22:00:00 15,1 13,7 11 6 79 43 ZZW 1004,8 10
14.10.2019 21:00:00 18,5 14,9 18 10 25 14 ZO 1003,1 10
14.10.2019 20:00:00 17,6 14,9 15 8 - - ZO 1004,6 10
14.10.2019 19:00:00 18,2 15,2 15 8 25 14 ZO 1004,4 10
14.10.2019 18:00:00 19,1 15,0 21 11 29 16 ZO 1004,4 10
14.10.2019 17:00:00 20,1 15,1 22 12 - - ZZO 1005,0 10
14.10.2019 16:00:00 20,0 15,3 22 12 32 18 ZZO 1005,6 12
14.10.2019 15:00:00 18,4 14,8 15 8 25 14 OZO 1007,0 10
14.10.2019 14:00:00 16,7 14,3 15 8 - - O 1007,6 10
14.10.2019 13:00:00 15,5 13,3 21 11 32 18 O 1008,7 10
14.10.2019 12:00:00 13,6 11,7 18 10 29 16 N 1009,9 10
14.10.2019 11:00:00 13,3 11,4 16 9 - - ONO 1010,2 10
14.10.2019 10:00:00 12,8 11,6 11 6 18 10 O 1011,2 10
14.10.2019 09:00:00 12,2 11,4 9 5 14 8 O 1011,6 8
14.10.2019 08:00:00 11,7 11,3 8 4 - - ONO 1011,9 10
14.10.2019 07:00:00 11,3 10,9 4 2 7 4 O 1012,6 10
14.10.2019 06:00:00 11,3 10,3 4 2 7 4 - 1013,0 10
14.10.2019 05:00:00 11,5 11,0 5 3 - - ZO 1012,4 10
14.10.2019 04:00:00 11,4 10,4 5 3 7 4 WZW 1012,8 10
14.10.2019 03:00:00 11,8 10,8 5 3 14 8 Z 1013,2 10
14.10.2019 02:00:00 12,0 10,8 13 7 - - ZZW 1013,4 10
14.10.2019 01:00:00 12,0 10,6 9 5 18 10 ZW 1012,6 10
14.10.2019 00:00:00 12,5 10,8 11 6 18 10 ZW 1012,2 10
13.10.2019 23:00:00 12,9 11,2 15 8 - - ZW 1011,2 10
13.10.2019 22:00:00 13,8 12,0 18 10 25 14 ZW 1010,3 10
13.10.2019 21:00:00 14,6 12,8 18 10 32 18 ZW 1009,5 10
13.10.2019 20:00:00 14,8 12,9 24 13 - - ZW 1008,7 10
13.10.2019 19:00:00 15,0 13,1 18 10 43 23 ZW 1007,5 10
13.10.2019 18:00:00 15,8 13,8 28 15 50 27 W 1006,7 10
13.10.2019 17:00:00 18,7 15,4 26 14 - - ZZW 1005,5 10
13.10.2019 16:00:00 18,6 16,1 21 11 47 25 ZZW 1005,3 10
13.10.2019 15:00:00 19,4 15,5 31 17 47 25 ZZW 1005,5 10
13.10.2019 14:00:00 19,9 15,4 29 16 - - Z 1004,6 30
13.10.2019 13:00:00 19,1 15,4 22 12 36 19 Z 1004,5 10
13.10.2019 12:00:00 17,9 15,9 18 10 29 16 Z 1005,3 10
13.10.2019 11:00:00 16,4 15,0 16 9 - - Z 1005,6 10
13.10.2019 10:00:00 15,6 14,5 18 10 25 14 Z 1005,6 10
13.10.2019 09:00:00 14,9 13,8 18 10 25 14 ZZO 1005,7 9
13.10.2019 08:00:00 14,1 13,0 16 9 - - ZZO 1006,2 8
13.10.2019 07:00:00 13,1 12,2 11 6 18 10 ZZO 1006,3 7
13.10.2019 06:00:00 13,8 12,6 9 5 18 10 Z 1007,1 8
13.10.2019 05:00:00 14,2 12,9 11 6 - - Z 1007,0 9
13.10.2019 04:00:00 14,1 12,7 11 6 22 12 Z 1007,4 9
13.10.2019 03:00:00 13,6 12,2 13 7 22 12 Z 1007,6 8
13.10.2019 02:00:00 11,9 11,0 7 4 - - ZZO 1007,9 4,0
13.10.2019 01:00:00 11,4 11,0 2 1 14 8 - 1008,5 2,0
13.10.2019 00:00:00 11,8 11,4 11 6 14 8 OZO 1008,9 0,8
12.10.2019 23:00:00 12,2 11,6 9 5 - - O 1009,4 2,8
12.10.2019 22:00:00 12,3 11,7 9 5 14 8 O 1009,5 3,5
12.10.2019 21:00:00 12,3 11,6 11 6 18 10 O 1009,6 7
12.10.2019 20:00:00 12,6 12,1 9 5 - - ONO 1009,7 9
12.10.2019 19:00:00 12,4 11,9 8 4 14 8 NO 1009,3 10
12.10.2019 18:00:00 12,6 11,7 8 4 14 8 NNO 1009,6 6
12.10.2019 17:00:00 12,5 11,4 9 5 - - NO 1009,8 10
12.10.2019 16:00:00 12,6 12,0 4 2 14 8 - 1010,2 7
12.10.2019 15:00:00 12,8 12,1 8 4 11 6 NO 1010,2 4,0
12.10.2019 14:00:00 13,0 12,4 5 3 - - NO 1010,4 6
12.10.2019 13:00:00 12,9 11,8 5 3 11 6 N 1010,4 4,0
12.10.2019 12:00:00 13,0 12,5 4 2 7 4 NW 1009,8 2,5
12.10.2019 11:00:00 12,7 11,6 2 1 - - W 1009,6 4,0
12.10.2019 10:00:00 12,3 11,0 2 1 7 4 - 1009,1 2,8
12.10.2019 09:00:00 12,4 11,3 2 1 7 4 - 1008,7 3,5
12.10.2019 08:00:00 12,1 10,9 4 2 - - NNW 1008,4 3,2
12.10.2019 07:00:00 12,0 10,7 8 4 18 10 NW 1008,1 4,5
12.10.2019 06:00:00 12,6 11,2 15 8 29 16 NNW 1007,9 10
12.10.2019 05:00:00 15,0 12,2 16 9 - - ZW 1007,5 10
12.10.2019 04:00:00 15,4 12,1 21 11 47 25 ZW 1007,7 10

tt = temperatuur
td = dauwpunt
ff = windsnelheid
fx = windstoten
dd = windrichting
ppp = luchtdruk
vv = zicht

Weerstations in de omgeving